| time (UTC) | temp F | wind direction | speed MPH | gust MPH | rain 1hr in | rain 24hr in | rain mn in | humidity % | barometer mb |
| 20260505051520 | 0 | 0.0 | 3.0 | 0.00 | 0.00 | 0.00 | 22 | 1010.7 | |
| 20260505050524 | 0 | 188 | 1.0 | 7.0 | 0.00 | 0.00 | 0.00 | 22 | 1010.7 |
| 20260505041549 | 0 | 113 | 0.0 | 3.0 | 0.00 | 0.00 | 0.00 | 22 | 1010.0 |
| 20260505040516 | 0 | 0.0 | 0.0 | 0.00 | 0.00 | 0.00 | 22 | 1009.8 | |
| 20260505035519 | 0 | 0.0 | 0.0 | 0.00 | 0.00 | 0.00 | 22 | 1009.6 | |
| 20260505034524 | 0 | 0.0 | 0.0 | 0.00 | 0.00 | 0.00 | 22 | 1009.6 | |
| 20260505033529 | 0 | 0.0 | 0.0 | 0.00 | 0.00 | 0.00 | 22 | 1009.3 | |
| 20260505032515 | 0 | 135 | 0.0 | 2.0 | 0.00 | 0.00 | 0.00 | 22 | 1009.1 |
| 20260505031540 | 0 | 113 | 0.0 | 2.0 | 0.00 | 0.00 | 0.00 | 22 | 1008.8 |
| 20260505030525 | 0 | 0.0 | 0.0 | 0.00 | 0.00 | 0.00 | 22 | 1008.8 | |
| 20260505025528 | 0 | 0.0 | 0.0 | 0.00 | 0.00 | 0.00 | 22 | 1008.7 | |
| 20260505024515 | 0 | 0.0 | 0.0 | 0.00 | 0.00 | 0.00 | 22 | 1008.5 | |
| 20260505023519 | 0 | 0.0 | 0.0 | 0.00 | 0.00 | 0.00 | 22 | 1008.5 | |
| 20260505022525 | 0 | 0.0 | 0.0 | 0.00 | 0.00 | 0.00 | 22 | 1008.4 | |
| 20260505021528 | 0 | 182 | 0.0 | 2.0 | 0.00 | 0.00 | 0.00 | 22 | 1008.3 |
| 20260505020519 | 0 | 0.0 | 0.0 | 0.00 | 0.00 | 0.00 | 22 | 1008.3 | |
| 20260505015519 | 0 | 0.0 | 0.0 | 0.00 | 0.00 | 0.00 | 22 | 1008.3 | |
| 20260505014528 | 0 | 0.0 | 0.0 | 0.00 | 0.00 | 0.00 | 22 | 1008.3 | |
| 20260505013528 | 0 | 0.0 | 0.0 | 0.00 | 0.00 | 0.00 | 22 | 1008.3 | |
| 20260505012527 | 0 | 0.0 | 0.0 | 0.00 | 0.00 | 0.00 | 22 | 1008.3 | |
| 20260505011524 | 0 | 0.0 | 0.0 | 0.00 | 0.00 | 0.00 | 22 | 1008.5 | |
| 20260505010523 | 0 | 0.0 | 0.0 | 0.00 | 0.00 | 0.00 | 22 | 1008.6 | |
| 20260505005522 | 0 | 0.0 | 0.0 | 0.00 | 0.00 | 0.00 | 22 | 1008.7 | |
| 20260505004521 | 0 | 0.0 | 2.0 | 0.00 | 0.00 | 0.00 | 22 | 1008.8 | |
| 20260505003519 | 0 | 0.0 | 0.0 | 0.00 | 0.00 | 0.00 | 22 | 1008.8 | |
| 20260505002518 | 0 | 0.0 | 3.0 | 0.00 | 0.00 | 0.00 | 22 | 1009.0 | |
| 20260505001516 | 0 | 180 | 0.0 | 1.0 | 0.00 | 0.00 | 0.00 | 22 | 1009.1 |
| 20260505000532 | 0 | 0.0 | 2.0 | 0.00 | 0.00 | 0.00 | 22 | 1009.1 | |
| 20260504235519 | 0 | 158 | 1.0 | 3.0 | 0.00 | 0.00 | 0.00 | 22 | 1009.0 |
| 20260504234523 | 0 | 71 | 2.0 | 4.0 | 0.00 | 0.00 | 0.00 | 22 | 1009.0 |
| 20260504233528 | 0 | 119 | 3.0 | 9.0 | 0.00 | 0.00 | 0.00 | 22 | 1009.1 |
| 20260504232532 | 0 | 115 | 0.0 | 2.0 | 0.00 | 0.00 | 0.00 | 22 | 1009.2 |
| 20260504231519 | 0 | 120 | 2.0 | 6.0 | 0.00 | 0.00 | 0.00 | 22 | 1009.4 |
| 20260504230545 | 0 | 86 | 0.0 | 2.0 | 0.00 | 0.00 | 0.00 | 22 | 1009.4 |
| 20260504225528 | 0 | 181 | 2.0 | 8.0 | 0.00 | 0.00 | 0.00 | 22 | 1009.3 |
| 20260504224533 | 0 | 257 | 1.0 | 5.0 | 0.00 | 0.00 | 0.00 | 22 | 1009.2 |
| 20260504223519 | 0 | 257 | 2.0 | 6.0 | 0.00 | 0.00 | 0.00 | 22 | 1009.2 |
| 20260504222524 | 0 | 239 | 3.0 | 6.0 | 0.00 | 0.00 | 0.00 | 22 | 1009.1 |
| 20260504221528 | 0 | 220 | 3.0 | 10.0 | 0.00 | 0.00 | 0.00 | 22 | 1009.0 |
| 20260504220532 | 0 | 273 | 3.0 | 9.0 | 0.00 | 0.00 | 0.00 | 22 | 1009.0 |
| 20260504215519 | 0 | 1.0 | 3.0 | 0.00 | 0.00 | 0.00 | 22 | 1009.1 | |
| 20260504214523 | 0 | 273 | 3.0 | 7.0 | 0.00 | 0.00 | 0.00 | 22 | 1009.3 |
| 20260504213549 | 0 | 266 | 2.0 | 6.0 | 0.00 | 0.00 | 0.00 | 22 | 1009.4 |
| 20260504212532 | 0 | 318 | 1.0 | 4.0 | 0.00 | 0.00 | 0.00 | 22 | 1009.6 |
| 20260504211540 | 0 | 232 | 1.0 | 7.0 | 0.00 | 0.00 | 0.00 | 22 | 1009.6 |
| 20260504210524 | 0 | 291 | 1.0 | 3.0 | 0.00 | 0.00 | 0.00 | 22 | 1009.8 |
| 20260504205528 | 0 | 250 | 1.0 | 5.0 | 0.00 | 0.00 | 0.00 | 22 | 1009.9 |
| 20260504204533 | 0 | 283 | 1.0 | 4.0 | 0.00 | 0.00 | 0.00 | 22 | 1009.9 |
| 20260504203520 | 0 | 193 | 1.0 | 3.0 | 0.00 | 0.00 | 0.00 | 22 | 1010.2 |
| 20260504202544 | 0 | 0.0 | 2.0 | 0.00 | 0.00 | 0.00 | 22 | 1010.2 | |
| 20260504201528 | 0 | 270 | 2.0 | 9.0 | 0.00 | 0.00 | 0.00 | 22 | 1010.2 |
| 20260504200532 | 0 | 280 | 1.0 | 5.0 | 0.00 | 0.00 | 0.00 | 22 | 1010.3 |
| 20260504195519 | 0 | 158 | 1.0 | 5.0 | 0.00 | 0.00 | 0.00 | 22 | 1010.4 |
| 20260504194523 | 0 | 248 | 1.0 | 3.0 | 0.00 | 0.00 | 0.00 | 22 | 1010.6 |
| 20260504193528 | 0 | 180 | 0.0 | 2.0 | 0.00 | 0.00 | 0.00 | 22 | 1010.8 |
| 20260504192532 | 0 | 293 | 1.0 | 3.0 | 0.00 | 0.00 | 0.00 | 22 | 1010.8 |
| 20260504191519 | 0 | 0.0 | 0.0 | 0.00 | 0.00 | 0.00 | 22 | 1011.0 | |
| 20260504190523 | 0 | 0.0 | 0.0 | 0.00 | 0.00 | 0.00 | 22 | 1011.1 | |
| 20260504185528 | 0 | 0.0 | 1.0 | 0.00 | 0.00 | 0.00 | 22 | 1011.1 | |
| 20260504184526 | 0 | 280 | 0.0 | 3.0 | 0.00 | 0.00 | 0.00 | 22 | 1011.1 |
| 20260504183539 | 0 | 315 | 1.0 | 5.0 | 0.00 | 0.00 | 0.00 | 22 | 1011.3 |
| 20260504182523 | 0 | 270 | 0.0 | 3.0 | 0.00 | 0.00 | 0.00 | 22 | 1011.6 |
| 20260504181523 | 0 | 285 | 0.0 | 3.0 | 0.00 | 0.00 | 0.00 | 22 | 1011.7 |
| 20260504180540 | 0 | 326 | 0.0 | 1.0 | 0.00 | 0.00 | 0.00 | 22 | 1011.8 |
| 20260504175520 | 0 | 8 | 1.0 | 7.0 | 0.00 | 0.00 | 0.00 | 22 | 1011.8 |
| 20260504174517 | 0 | 0.0 | 0.0 | 0.00 | 0.00 | 0.00 | 22 | 1011.8 | |
| 20260504173520 | 0 | 232 | 1.0 | 5.0 | 0.00 | 0.00 | 0.00 | 22 | 1012.0 |
| 20260504172533 | 0 | 203 | 0.0 | 3.0 | 0.00 | 0.00 | 0.00 | 22 | 1012.0 |
| 20260504171518 | 0 | 139 | 1.0 | 5.0 | 0.00 | 0.00 | 0.00 | 22 | 1012.2 |
| 20260504170523 | 0 | 0.0 | 0.0 | 0.00 | 0.00 | 0.00 | 22 | 1012.2 | |
| 20260504150522 | 0 | 0.0 | 0.0 | 0.00 | 0.00 | 0.00 | 22 | 1012.5 | |
| 20260504140531 | 0 | 0.0 | 0.0 | 0.00 | 0.00 | 0.00 | 22 | 1012.6 | |
| 20260504130542 | 0 | 0.0 | 0.0 | 0.00 | 0.00 | 0.00 | 22 | 1012.6 | |
| 20260504110516 | 0 | 0.0 | 0.0 | 0.00 | 0.00 | 0.00 | 22 | 1012.7 | |
| 20260504100531 | 0 | 0.0 | 0.0 | 0.00 | 0.00 | 0.00 | 22 | 1012.2 | |
| 20260504081526 | 0 | 0.0 | 0.0 | 0.00 | 0.00 | 0.00 | 22 | 1011.5 | |
| 20260504080531 | 0 | 0.0 | 0.0 | 0.00 | 0.00 | 0.00 | 22 | 1011.6 |